Regional Weather Roundup
Issued by NWS Goodland, KS

Home | Current Version | Previous Version | Text Only | Print | Product List | Glossary On
Versions: 1 2 3 4 5 6 7 8 9 10 11 12 13 14 15 16 17 18 19 20 21 22 23 24 25 26 27 28 29 30 31 32 33 34 35 36 37 38 39 40 41 42 43 44 45 46 47 48 49 50
000
ASUS43 KGLD 251008
RWRGLD

GOODLAND FORECAST AREA HOURLY WEATHER ROUNDUP
NATIONAL WEATHER SERVICE GOODLAND KS
300 AM MST THU DEC 25 2014

...OFFICIAL OBSERVATIONS...

CITY           SKY/WX    TMP DP  RH WIND       PRES   REMARKS
GOODLAND KS    CLOUDY    32  21  64 SW9       29.43F
HILL CITY KS   CLOUDY    33  19  56 S8        29.52F
IMPERIAL NEB   CLOUDY    25  19  78 E3        29.44F
MCCOOK NEB     CLOUDY    29  23  78 E8        29.46S
AKRON CO       MOCLDY    34  24  67 W12       29.41F
BURLINGTON CO  CLOUDY    34  20  56 W15       29.43S
LIMON CO       MOCLDY    24  21  88 CALM      29.43F
$$

...UNOFFICIAL OBSERVATIONS...

CITY           SKY/WX    TMP DP  RH WIND       PRES   REMARKS
COLBY KS       CLEAR     32  25  74 S8        29.45F
GOVE KS          N/A     28  32 100 MISG        N/A
NORTON KS      CLEAR     34  18  51 SE7       29.48F
SHARON SPRINGS   N/A     31  22  70 W9          N/A
TRIBUNE KS     CLOUDY    30  25  80 S6        29.46F
KIT CARSON CO    N/A     24  19  81 MISG        N/A
YUMA CO          N/A     27  22  79 CALM        N/A
$$


USA.gov is the U.S. government's official web portal to all federal, state and local government web resources and services.